Tyler, TX

7:18 PM CDT on July 27, 2017 (GMT -0500)
Tyler Pounds

Weather History for KTYR - March, 2014

Change the Weather History Date:

Thursday, March 20, 2014

  Actual Average Record
Temperature  
Mean Temperature 57 °F 58 °F  
Max Temperature 71 °F 68 °F 87 °F (1982)
Min Temperature 42 °F 48 °F 19 °F (1965)
Degree Days  
Heating Degree Days 8 8  
Month to date heating degree days 286 195  
Since 1 July heating degree days 2350 2087  
Cooling Degree Days 0 1  
Month to date cooling degree days 5 8  
Year to date cooling degree days 8 20  
Growing Degree Days 7 (Base 50)    
Moisture  
Dew Point 31 °F    
Average Humidity 42    
Maximum Humidity 67    
Minimum Humidity 16    
Precipitation  
Precipitation 0.00 in 0.14 in 3.12 in (2012)
Month to date precipitation 1.63 2.75  
Year to date precipitation 5.63 9.62  
Snow  
Snow 0.00 in - - ()
Month to date snowfall 1.0  
Since 1 July snowfall 1.2  
Snow Depth 0.00 in    
Sea Level Pressure  
Sea Level Pressure 30.14 in    
Wind  
Wind Speed 4 mph (SE)    
Max Wind Speed 13 mph    
Max Gust Speed 16 mph    
Visibility 10 miles    
Events      
T = Trace of Precipitation, MM = Missing Value Source: NWS Daily Summary

Daily Weather History Graph

Daily Weather History Graph

Search for Another Location

Airport or City:

Trip Planner

Search our weather history database for the weather conditions in past years. The results will help you decide how hot, cold, wet, or windy it might be!

Date:

Astronomy

Mar. 20, 2014 Rise Set
Actual Time 7:25 AM CDT 7:33 PM CDT
Civil Twilight 7:00 AM CDT 7:57 PM CDT
Nautical Twilight 6:32 AM CDT 8:26 PM CDT
Astronomical Twilight 6:03 AM CDT 8:55 PM CDT
Moon 11:39 PM CDT (3/20) 9:45 AM CDT (3/20)
Length of Visible Light 12h 56m
Length of Day
12h 07m
Waning Gibbous, 84% of the Moon is Illuminated
Mar 20
Waning Gibbous
Mar 23
Last Quarter
Mar 30
New
Apr 7
First Quarter
Apr 15
Full

Hourly Weather History & Observations

Time (CDT) Temp. Windchill Dew Point Humidity Pressure Visibility Wind Dir Wind Speed Gust Speed Precip Events Conditions
12:53 AM 48.0 °F - 37.9 °F 68% 30.19 in 10.0 mi Calm Calm - N/A   Clear
1:53 AM 48.0 °F - 37.0 °F 66% 30.18 in 10.0 mi North 3.5 mph - N/A   Clear
2:53 AM 46.9 °F - 35.1 °F 63% 30.18 in 10.0 mi North 5.8 mph - N/A   Clear
3:53 AM 46.0 °F 44.8 °F 34.0 °F 63% 30.17 in 10.0 mi North 3.5 mph - N/A   Clear
4:53 AM 45.0 °F 43.5 °F 33.1 °F 63% 30.18 in 10.0 mi NNE 3.5 mph - N/A   Clear
5:53 AM 45.0 °F 43.5 °F 32.0 °F 60% 30.19 in 10.0 mi NE 3.5 mph - N/A   Clear
6:53 AM 44.1 °F 42.5 °F 32.0 °F 63% 30.19 in 10.0 mi ENE 3.5 mph - N/A   Clear
7:53 AM 43.0 °F - 32.0 °F 65% 30.20 in 10.0 mi Calm Calm - N/A   Clear
8:53 AM 48.9 °F - 34.0 °F 56% 30.22 in 10.0 mi Calm Calm - N/A   Clear
9:53 AM 55.9 °F - 33.1 °F 42% 30.22 in 10.0 mi East 10.4 mph - N/A   Clear
10:53 AM 59.0 °F - 30.9 °F 35% 30.23 in 10.0 mi East 5.8 mph - N/A   Clear
11:53 AM 62.1 °F - 28.9 °F 29% 30.21 in 10.0 mi Variable 3.5 mph - N/A   Clear
12:53 PM 64.0 °F - 28.9 °F 27% 30.19 in 10.0 mi SE 5.8 mph - N/A   Clear
1:53 PM 66.9 °F - 27.0 °F 22% 30.15 in 10.0 mi South 4.6 mph - N/A   Clear
2:53 PM 69.1 °F - 25.0 °F 19% 30.12 in 9.0 mi West 5.8 mph - N/A   Clear
3:53 PM 70.0 °F - 21.9 °F 16% 30.09 in 10.0 mi Calm Calm - N/A   Clear
4:53 PM 71.1 °F - 24.1 °F 17% 30.07 in 10.0 mi SSE 5.8 mph - N/A   Clear
5:53 PM 70.0 °F - 24.1 °F 18% 30.05 in 10.0 mi SSW 5.8 mph - N/A   Clear
6:53 PM 69.1 °F - 28.9 °F 22% 30.04 in 10.0 mi SW 3.5 mph - N/A   Clear
7:53 PM 64.9 °F - 30.9 °F 28% 30.03 in 10.0 mi Calm Calm - N/A   Clear
8:53 PM 61.0 °F - 35.1 °F 38% 30.04 in 10.0 mi Calm Calm - N/A   Clear
9:53 PM 54.0 °F - 32.0 °F 43% 30.04 in 10.0 mi South 4.6 mph - N/A   Clear
10:53 PM 53.1 °F - 34.0 °F 48% 30.04 in 10.0 mi SSE 4.6 mph - N/A   Clear
11:53 PM 55.0 °F - 33.1 °F 43% 30.04 in 10.0 mi South 4.6 mph - N/A   Clear